Home > Time Zones > World Clock > Weather > France > Metz > Past weeks

Flag for France Weather past 2 weeks in Metz, France

Now
46 °F

Clear.


Feels Like: 44 °F
Forecast: 38 / 56 °F
Wind: 6 mph from Southwest

Location: Metz-Nancy-Lorraine

Current Time: Oct 23, 2014 at 10:50:01 AM

Latest Report: Oct 23, 2014 at 10:30 AM


Visibility: N/A

Pressure: 30.30 "Hg

Humidity: 87%

Dew point: 43 °F

Location of MetzLocation

Historic Weather in Metz — Graph

°F

Metz temperature yesterday

Maximum temperature yesterday: 50 °F (at 1:30 PM)
Minimum temperature yesterday: 43 °F (at 7:00 AM)
Average temperature yesterday: 47 °F

Past Weeks' High & Low Weather Summary

 TemperatureHumidityPressure
High73 °F (Oct 19, 2:00 PM)100% (Oct 9, 10:30 AM)30.27 "Hg (Oct 9, 10:30 AM)
Low43 °F (Oct 22, 7:00 AM)57% (Oct 19, 5:00 PM)29.65 "Hg (Oct 8, 11:00 PM)
Average57 °F87%29.94 "Hg
* Reported Oct 8 9:00 AM — Oct 23 9:30 AM, Metz, Weather by CustomWeather, © 2014

Note: Actual official high and low records may vary slightly from our data, if they occured in-between our weather recording intervals... More about our weather records

Advertising

Metz weather history for previous 24 hours

 ConditionsComfort  
Time TempWeatherWind HumidityBarometerVisibility
9:30 AM
Oct 23
43 °FClear.7 mph93%30.27 "HgN/A
9:00 AM43 °FClear.6 mph93%30.27 "HgN/A
8:30 AM43 °FClear.6 mph93%30.27 "HgN/A
8:00 AM43 °FClear.5 mph93%30.27 "HgN/A
7:30 AM43 °FClear.6 mph93%30.27 "HgN/A
7:00 AM45 °FClear.9 mph87%30.24 "HgN/A
6:30 AM43 °FClear.7 mph93%30.24 "HgN/A
6:00 AM45 °FClear.5 mph87%30.24 "HgN/A
5:30 AM43 °FClear.5 mph93%30.24 "HgN/A
5:00 AM43 °FClear.3 mph93%30.24 "HgN/A
4:30 AM45 °FClear.2 mph87%30.24 "HgN/A
4:00 AM45 °FClear.2 mph87%30.27 "HgN/A
3:30 AM45 °FClear.6 mph87%30.27 "HgN/A
3:00 AM46 °FClear.9 mph82%30.27 "HgN/A
2:30 AM46 °FClear.9 mph82%30.27 "HgN/A
2:00 AM46 °FMostly cloudy.9 mph82%30.27 "HgN/A
1:30 AM46 °FOvercast.8 mph82%30.27 "HgN/A
1:00 AM46 °FMostly cloudy.8 mph82%30.27 "HgN/A
12:30 AM46 °FClear.8 mph82%30.27 "HgN/A
12:00 AM46 °FClear.10 mph82%30.24 "HgN/A
11:30 PM
Oct 22
46 °FClear.9 mph82%30.27 "HgN/A
11:00 PM48 °FOvercast.9 mph76%30.27 "HgN/A
10:30 PM48 °FMostly cloudy.10 mph76%30.24 "HgN/A
10:00 PM48 °FOvercast.14 mph76%30.24 "HgN/A
9:30 PM48 °FClear.12 mph76%30.24 "HgN/A
9:00 PM48 °FOvercast.13 mph76%30.21 "HgN/A
8:30 PM48 °FOvercast.13 mph76%30.21 "HgN/A
8:00 PM48 °FPartly cloudy.14 mph76%30.21 "HgN/A
7:30 PM48 °FClear.15 mph76%30.21 "HgN/A
7:00 PM48 °FClear.14 mph76%30.18 "HgN/A
6:30 PM48 °FClear.17 mph76%30.18 "HgN/A
6:00 PM50 °FClear.13 mph71%30.18 "HgN/A
5:30 PM50 °FClear.14 mph67%30.18 "HgN/A
5:00 PM50 °FOvercast.16 mph67%30.18 "HgN/A
4:30 PM50 °FBroken clouds.17 mph67%30.18 "HgN/A
4:00 PM50 °FMostly cloudy.17 mph67%30.18 "HgN/A
3:30 PM50 °FCloudy.22 mph67%30.18 "HgN/A
3:00 PM50 °FBroken clouds.17 mph67%30.18 "HgN/A
2:30 PM50 °FBroken clouds.16 mph67%30.18 "HgN/A
2:00 PM50 °FMostly cloudy.17 mph62%30.18 "HgN/A
1:30 PM50 °FPartly sunny.16 mph67%30.18 "HgN/A
1:00 PM48 °FMostly cloudy.21 mph66%30.18 "HgN/A
12:30 PM48 °FMostly cloudy.21 mph66%30.18 "HgN/A
12:00 PM46 °FOvercast.20 mph71%30.18 "HgN/A
11:30 AM46 °FMostly cloudy.21 mph71%30.18 "HgN/A
11:00 AM46 °FPartly sunny.21 mph71%30.18 "HgN/A
10:30 AM45 °FBroken clouds.17 mph76%30.18 "HgN/A
10:00 AM43 °FClear.16 mph76%30.18 "HgN/A
Weather by CustomWeather, © 2014

See weather overviewHow to use our weather pages